Aeroporto :
LOGIN :

Iscrizione | Disclaimer

   EN    FR    IT 

 










Sommario :    VFR   VFR Marginale   IFR   IFR Intensivo   IFR Molto Intensivo
Visibilità : 
Base nubi : 
>= 8 km
>= 3000ft
5 / 8 km
1000 / 3000 ft
1500m / 5 km
500 / 1000 ft
800 / 1500m
200 / 500 ft
< 800m
< 200 ft
Simboli :   Temporali  Nebbia  Neve Forte  Precipitazioni Forti  Vento > 20 kt
SIGMETs :   Varie  Temporali  Ghiacco  Turbolenza  Onda orograficha  Ceneri Vulcaniche






- Altitudine del aeroporto : 814 ft
- Codice IATA : TLM


DAON - Zenata - Tlemcen

ULTIMO METAR :
  • 191200Z 36004KT 9999 FEW026 SCT233 28/17 Q1019

METARs OBSOLETI :
  • 191100Z 36004KT 9999 SCT026 27/17 Q1019
  • 191000Z 34004KT 9999 SCT026 BKN100 25/17 Q1019
  • 190900Z 36006KT 9999 SCT026 BKN100 24/17 Q1020

TAF TAF DAON
Valido dal 19 a 12 ore il 20 a 12 ore UTC


191100Z 1912/2012 VRB02KT 9999 SCT026 BKN100
BECMG 1913/1915 02014KT FEW026TCU
PROB30
TEMPO 1915/1921 -TSRA FEW026CB
BECMG 1921/1923 VRB02KT



MetMap, La meteo Aeronautica in un colpo d'occhio ! - Copyright ORBIFLY Dicembre 2007 - Disclaimer

ORBIFLY MET'MAP TEAM :

Programmazione e sviluppo : Alexandra Zaïnal
Concezione : Baudouin d'Aumeries
Aiuto per la programmazione : Marc-Olivier Méhu
Supporto tecnico e logistico : Manuel Goepfert
Aiuto per la traduzione : Arnaldo La Scala

Contatto : metmap@orbifly.com




FONTI E CREDITI :

   NOAA